[[{"header":{"parameterUnit":"m.s-1","parameterCategory":1,"la1":30.2991,"la2":30.254,"lo1":-89.0895,"lo2":-89.0444,"dy":0.0017,"dx":0.0017,"nx":28,"ny":28,"refTime":"2023-08-20T21:00:00:Z","depth":0,"parameterNumber":2,"parameterNumberName":"U-component_of_WINDS"},"data":[0,0,0,0,0,0,0,0,0,0,0,0,0,0,0,0,0,0,0,0,0,0,0,0,0,0,0,0,0,0,0,0,0,0,0,0,0,0,0,0,0,0,0,0,0,0,0,0,0,0,0,0,0,0,0,0,0,0,-1.3917,-1.3917,0,-1.3941,-1.3941,-1.3942,-1.394,-1.3939,-1.3939,-1.3939,-1.3962,-1.3963,-1.3964,0,0,0,0,0,0,0,0,0,0,0,0,0,-1.387,-1.3871,-1.3917,-1.3917,-1.3918,-1.3941,-1.3941,-1.3942,-1.394,-1.3939,-1.3939,-1.3938,-1.3962,-1.3963,-1.3964,0,0,0,0,0,0,0,0,0,0,0,0,0,-1.3892,-1.3871,-1.3917,-1.392,-1.392,-1.3941,-1.3941,-1.3942,-1.394,-1.3939,-1.3939,-1.3938,-1.3962,-1.3963,-1.3964,-1.3984,0,0,-1.3969,-1.3969,0,0,0,0,0,0,0,0,-1.389,-1.3893,-1.3919,-1.3919,-1.392,-1.3937,-1.3933,-1.3956,-1.394,-1.3932,-1.3939,-1.3938,-1.3954,-1.3956,-1.3962,-1.3985,-1.3986,-1.3969,-1.397,-1.397,-1.3971,0,0,0,0,0,0,0,-1.3889,-1.3892,-1.3926,-1.3919,-1.392,-1.392,-1.3922,-1.3938,-1.3946,-1.3933,-1.3933,-1.3936,-1.3954,-1.396,-1.3962,-1.3986,-1.3969,-1.397,-1.3971,-1.3972,-1.4028,-1.4029,0,0,0,0,0,0,-1.3887,-1.3891,-1.3926,-1.3927,-1.3904,-1.3921,-1.3924,-1.3932,-1.3946,-1.3947,-1.3936,-1.3936,-1.3958,-1.3961,-1.3963,-1.3988,-1.397,-1.3972,-1.3973,-1.4028,-1.4028,-1.4029,0,0,0,0,0,0,-1.3886,-1.389,-1.3925,-1.3909,-1.3914,-1.3922,-1.3932,-1.3933,-1.3939,-1.3948,-1.395,-1.3941,-1.3958,-1.3961,-1.3979,-1.3988,-1.3972,-1.3974,-1.4027,-1.4028,-1.4029,-1.4036,0,0,0,0,0,0,-1.3884,-1.389,-1.3897,-1.3909,-1.3914,-1.394,-1.3932,-1.3934,-1.3941,-1.3941,-1.3953,-1.3954,-1.3958,-1.3977,-1.3981,-1.399,-1.3975,-1.4026,-1.4027,-1.4029,-1.4035,-1.4037,-1.4039,0,0,0,0,0,-1.3883,-1.3898,-1.3897,-1.3902,-1.3924,-1.3941,-1.3944,-1.3947,-1.3942,-1.395,-1.3956,-1.3954,-1.3987,-1.3979,-1.3983,-1.3993,-1.4026,-1.4027,-1.4028,-1.4034,-1.4037,-1.4039,0,0,0,0,0,0,-1.3885,-1.3899,-1.3899,-1.3918,-1.3929,-1.394,-1.395,-1.395,-1.3961,-1.396,-1.3964,-1.3967,-1.3985,-1.3991,-1.3982,-1.4013,-1.4006,-1.4008,-1.4009,-1.4011,-1.4013,-1.4011,-1.3976,0,0,0,0,0,-1.3888,-1.3901,-1.3912,-1.3928,-1.3934,-1.3941,-1.3949,-1.3951,-1.3961,-1.3965,-1.3973,-1.3983,-1.3996,-1.4004,-1.4016,-1.4037,-1.4039,-1.4046,-1.4048,-1.4049,-1.4051,-1.4063,-1.4066,-1.4034,-1.4034,-1.4034,0,0,-1.3894,-1.3904,-1.3911,-1.3929,-1.3937,-1.3951,-1.3945,-1.3958,-1.3968,-1.3967,-1.3985,-1.3991,-1.4003,-1.4022,-1.4031,-1.4028,-1.4061,-1.4051,-1.4052,-1.4053,-1.4065,-1.4068,-1.4071,-1.4035,-1.4035,-1.4035,0,0,-1.3912,-1.392,-1.3935,-1.3943,-1.3956,-1.3961,-1.3965,-1.3977,-1.3981,-1.3999,-1.3999,-1.4011,-1.4033,-1.4041,-1.4048,-1.4071,-1.407,-1.4075,-1.4085,-1.4097,-1.41,-1.4102,-1.411,-1.4113,-1.4077,-1.4077,-1.4077,0,-1.3917,-1.3937,-1.3942,-1.3957,-1.3965,-1.3965,-1.398,-1.3988,-1.4004,-1.401,-1.4006,-1.4034,-1.4042,-1.4064,-1.407,-1.4075,-1.408,-1.4073,-1.4099,-1.4101,-1.4103,-1.4111,-1.4115,-1.4077,-1.4077,-1.4077,-1.4077,0,-1.3944,-1.3958,-1.3968,-1.3984,-1.3994,-1.4008,-1.4016,-1.4025,-1.4027,-1.4032,-1.4051,-1.4061,-1.4075,-1.4081,-1.4082,-1.4104,-1.4101,-1.4098,-1.409,-1.4107,-1.4115,-1.4118,-1.4078,-1.4078,-1.4078,-1.4078,0,0,-1.3962,-1.3982,-1.3986,-1.3994,-1.4008,-1.4019,-1.4034,-1.4049,-1.4057,-1.4069,-1.4082,-1.4101,-1.4099,-1.4107,-1.411,-1.412,-1.4138,-1.4116,-1.4116,-1.412,-1.4163,-1.4165,-1.4168,-1.4138,-1.4138,-1.4139,-1.4162,0,-1.3981,-1.4008,-1.4014,-1.4037,-1.4051,-1.4052,-1.4066,-1.4076,-1.4082,-1.4095,-1.4101,-1.4115,-1.4111,-1.4116,-1.4126,-1.4134,-1.4147,-1.4132,-1.415,-1.4151,-1.4147,-1.4172,-1.4174,-1.4195,-1.4165,-1.4165,-1.4166,0,-1.4007,-1.402,-1.4045,-1.4059,-1.4065,-1.4077,-1.4091,-1.4103,-1.4116,-1.4119,-1.413,-1.4132,-1.4148,-1.414,-1.4163,-1.4153,-1.4161,-1.4166,-1.4167,-1.4168,-1.4159,-1.4174,-1.4202,-1.4205,-1.417,-1.417,-1.417,0,-1.4018,-1.4042,-1.406,-1.4067,-1.4083,-1.4092,-1.4099,-1.4112,-1.4121,-1.4134,-1.414,-1.4154,-1.4162,-1.4174,-1.418,-1.4173,-1.4202,-1.4195,-1.4206,-1.4206,-1.4211,-1.4211,-1.4241,-1.4217,-1.4217,-1.4217,-1.4217,0,-1.4039,-1.4054,-1.4065,-1.4076,-1.4094,-1.41,-1.4118,-1.4125,-1.4136,-1.4149,-1.4151,-1.4163,-1.4171,-1.4184,-1.4189,-1.4208,-1.4211,-1.4215,-1.4216,-1.4214,-1.4214,-1.4219,-1.4218,-1.4218,-1.4218,-1.4217,-1.4217,0,-1.4054,-1.4062,-1.4082,-1.4097,-1.4101,-1.4113,-1.4126,-1.4137,-1.4144,-1.4161,-1.4165,-1.4175,-1.4191,-1.4199,-1.4218,-1.4222,-1.4243,-1.4243,-1.4239,-1.4239,-1.425,-1.4249,-1.4284,-1.4289,-1.4262,-1.4262,-1.4263,0,-1.4066,-1.4078,-1.4094,-1.4104,-1.4111,-1.4126,-1.4135,-1.4143,-1.4153,-1.4169,-1.4178,-1.4194,-1.4208,-1.4233,-1.4243,-1.4258,-1.4258,-1.427,-1.4261,-1.4259,-1.4259,-1.4258,-1.4259,-1.4271,-1.4271,-1.4272,-1.4272,0,-1.4087,-1.4091,-1.4105,-1.412,-1.4132,-1.4145,-1.4157,-1.4164,-1.4174,-1.4185,-1.4201,-1.4212,-1.4233,-1.4249,-1.4265,-1.4273,-1.4274,-1.4275,-1.4278,-1.4276,-1.4273,-1.4275,-1.4243,-1.4274,-1.4273,-1.4273,-1.4273,-1.4273,-1.4101,-1.4112,-1.4126,-1.4141,-1.4152,-1.4164,-1.4175,-1.4184,-1.4198,-1.4216,-1.4219,-1.4237,-1.4251,-1.4273,-1.4282,-1.4296,-1.4293,-1.4298,-1.4299,-1.43,-1.4301,-1.4272,-1.4299,-1.4299,-1.4299,-1.4299,-1.4299,0,-1.4122,-1.4131,-1.4146,-1.4163,-1.4176,-1.4177,-1.4191,-1.4202,-1.4217,-1.423,-1.4244,-1.4263,-1.428,-1.4291,-1.4308,-1.4317,-1.4318,-1.4321,-1.432,-1.4322,-1.4302,-1.4298,-1.432,-1.432,-1.432,-1.432,-1.432,-1.432,-1.4134,-1.4153,-1.4159,-1.4184,-1.4193,-1.4211,-1.4219,-1.423,-1.424,-1.4262,-1.4276,-1.4284,-1.4296,-1.4314,-1.4329,-1.4332,-1.4338,-1.4341,-1.4344,-1.4326,-1.4323,-1.4321,-1.4317,-1.4343,-1.4343,-1.4363,-1.4363,-1.4363]},{"header":{"parameterUnit":"m.s-1","parameterCategory":1,"la1":30.2991,"la2":30.254,"lo1":-89.0895,"lo2":-89.0444,"dy":0.0017,"dx":0.0017,"nx":28,"ny":28,"refTime":"2023-08-20T21:00:00:Z","depth":0,"parameterNumber":3,"parameterNumberName":"V-component_of_WINDS"},"data":[0,0,0,0,0,0,0,0,0,0,0,0,0,0,0,0,0,0,0,0,0,0,0,0,0,0,0,0,0,0,0,0,0,0,0,0,0,0,0,0,0,0,0,0,0,0,0,0,0,0,0,0,0,0,0,0,0,0,-0.3605,-0.3607,0,-0.3748,-0.375,-0.3751,-0.3804,-0.3804,-0.3803,-0.3803,-0.3954,-0.3958,-0.3962,0,0,0,0,0,0,0,0,0,0,0,0,0,-0.3382,-0.3386,-0.3605,-0.3607,-0.3609,-0.3748,-0.375,-0.3752,-0.3804,-0.3804,-0.3803,-0.3802,-0.3952,-0.3958,-0.3963,0,0,0,0,0,0,0,0,0,0,0,0,0,-0.3498,-0.3387,-0.3605,-0.3652,-0.3657,-0.3747,-0.375,-0.3752,-0.3804,-0.3804,-0.3803,-0.3802,-0.395,-0.3957,-0.3964,-0.402,0,0,-0.3984,-0.3987,0,0,0,0,0,0,0,0,-0.3491,-0.3506,-0.3643,-0.3648,-0.3655,-0.3757,-0.3727,-0.3842,-0.3804,-0.3749,-0.3803,-0.3802,-0.3889,-0.3901,-0.393,-0.4027,-0.4033,-0.3985,-0.3989,-0.3992,-0.3994,0,0,0,0,0,0,0,-0.3483,-0.35,-0.3662,-0.3645,-0.3652,-0.3667,-0.3682,-0.3749,-0.3821,-0.3753,-0.3757,-0.3773,-0.3893,-0.3923,-0.3933,-0.4035,-0.3985,-0.3991,-0.3995,-0.3997,-0.4187,-0.4188,0,0,0,0,0,0,-0.3467,-0.3493,-0.3657,-0.3666,-0.3569,-0.3671,-0.3689,-0.3725,-0.3821,-0.3835,-0.3774,-0.3775,-0.3912,-0.3926,-0.3939,-0.4012,-0.3992,-0.3998,-0.4002,-0.4186,-0.4187,-0.4188,0,0,0,0,0,0,-0.3462,-0.3481,-0.3652,-0.3581,-0.3604,-0.3676,-0.3717,-0.3729,-0.3759,-0.3836,-0.385,-0.3791,-0.3912,-0.393,-0.3999,-0.4018,-0.4001,-0.4007,-0.4185,-0.4186,-0.4188,-0.4157,0,0,0,0,0,0,-0.3455,-0.3479,-0.35,-0.3581,-0.3607,-0.3708,-0.3718,-0.3732,-0.377,-0.3773,-0.3856,-0.3869,-0.3913,-0.3989,-0.4006,-0.4027,-0.4012,-0.4183,-0.4185,-0.4187,-0.4157,-0.4158,-0.4158,0,0,0,0,0,-0.3447,-0.3486,-0.35,-0.352,-0.3635,-0.3709,-0.3724,-0.3772,-0.3771,-0.3794,-0.3843,-0.3867,-0.4012,-0.3995,-0.4015,-0.4038,-0.4183,-0.4185,-0.4187,-0.4157,-0.4158,-0.4158,0,0,0,0,0,0,-0.3407,-0.3498,-0.3514,-0.3581,-0.3636,-0.3717,-0.3747,-0.3771,-0.3829,-0.383,-0.3888,-0.3906,-0.3971,-0.4012,-0.3991,-0.4098,-0.4099,-0.4106,-0.407,-0.4071,-0.4071,-0.4061,-0.4018,0,0,0,0,0,-0.3405,-0.3457,-0.3534,-0.3585,-0.3612,-0.3674,-0.3709,-0.374,-0.3801,-0.3825,-0.388,-0.3939,-0.3999,-0.4037,-0.4096,-0.4163,-0.4183,-0.4188,-0.4189,-0.4189,-0.4194,-0.4234,-0.4238,-0.4196,-0.4196,-0.4196,0,0,-0.3404,-0.346,-0.3489,-0.3578,-0.3625,-0.3679,-0.3694,-0.375,-0.3791,-0.3834,-0.3903,-0.3945,-0.4016,-0.4084,-0.4117,-0.412,-0.421,-0.4192,-0.4191,-0.4197,-0.4237,-0.4241,-0.4245,-0.4197,-0.4197,-0.4197,0,0,-0.3429,-0.3475,-0.3523,-0.357,-0.364,-0.3681,-0.3693,-0.377,-0.3799,-0.3869,-0.3903,-0.3953,-0.4054,-0.4103,-0.4141,-0.4183,-0.4208,-0.42,-0.4204,-0.4242,-0.4246,-0.4249,-0.4266,-0.4271,-0.4205,-0.4205,-0.4205,0,-0.3418,-0.3499,-0.3546,-0.36,-0.3639,-0.3679,-0.3729,-0.3772,-0.3859,-0.3886,-0.3887,-0.4014,-0.4064,-0.4145,-0.4155,-0.4184,-0.4201,-0.4192,-0.4241,-0.4245,-0.4249,-0.4266,-0.4272,-0.4204,-0.4204,-0.4204,-0.4204,0,-0.3483,-0.3538,-0.3569,-0.365,-0.3693,-0.3744,-0.3801,-0.3838,-0.3866,-0.3908,-0.3979,-0.404,-0.4112,-0.4133,-0.4161,-0.4219,-0.4219,-0.4229,-0.4232,-0.4251,-0.4268,-0.4275,-0.4202,-0.4203,-0.4203,-0.4203,0,0,-0.3489,-0.3594,-0.3605,-0.3642,-0.3722,-0.3767,-0.3821,-0.389,-0.3922,-0.398,-0.4028,-0.4111,-0.4122,-0.4165,-0.4199,-0.4232,-0.4264,-0.424,-0.4242,-0.4244,-0.4333,-0.4326,-0.4332,-0.428,-0.4281,-0.4282,-0.4328,0,-0.3525,-0.3622,-0.3666,-0.3744,-0.3797,-0.3835,-0.3883,-0.3938,-0.3978,-0.4029,-0.4074,-0.4133,-0.4142,-0.4168,-0.4203,-0.4253,-0.4283,-0.425,-0.4327,-0.4329,-0.431,-0.4341,-0.4334,-0.4374,-0.4335,-0.4336,-0.4337,0,-0.3581,-0.3638,-0.3721,-0.3795,-0.3819,-0.386,-0.3928,-0.3976,-0.4039,-0.4066,-0.4114,-0.4146,-0.4206,-0.4202,-0.4287,-0.4263,-0.4298,-0.4327,-0.433,-0.4341,-0.4336,-0.4355,-0.4388,-0.4395,-0.4347,-0.4346,-0.4346,0,-0.3579,-0.3676,-0.3738,-0.3769,-0.3857,-0.3885,-0.3923,-0.3986,-0.4025,-0.4084,-0.411,-0.4176,-0.4212,-0.4263,-0.4313,-0.4305,-0.4393,-0.4394,-0.4419,-0.4418,-0.4438,-0.4436,-0.4479,-0.4456,-0.4456,-0.4456,-0.4456,0,-0.3617,-0.3666,-0.3738,-0.3777,-0.3834,-0.3884,-0.394,-0.3981,-0.4037,-0.4085,-0.4122,-0.4168,-0.4229,-0.4283,-0.4322,-0.4387,-0.4403,-0.4428,-0.4438,-0.4426,-0.4423,-0.4451,-0.445,-0.4457,-0.4457,-0.4457,-0.4456,0,-0.3625,-0.3675,-0.3745,-0.3822,-0.3842,-0.3881,-0.3948,-0.3988,-0.4029,-0.409,-0.4107,-0.4173,-0.4237,-0.4291,-0.4377,-0.4403,-0.4471,-0.4482,-0.4449,-0.4455,-0.4479,-0.4476,-0.4542,-0.4555,-0.4521,-0.4521,-0.4521,0,-0.3646,-0.3685,-0.3765,-0.38,-0.3837,-0.3892,-0.3931,-0.3982,-0.4022,-0.4098,-0.4129,-0.4196,-0.4252,-0.4354,-0.441,-0.4476,-0.449,-0.4509,-0.4501,-0.4487,-0.4493,-0.4491,-0.4496,-0.451,-0.451,-0.451,-0.451,0,-0.368,-0.3703,-0.3757,-0.3821,-0.3867,-0.392,-0.3974,-0.4,-0.4061,-0.4104,-0.417,-0.4214,-0.43,-0.4367,-0.4438,-0.448,-0.4506,-0.4512,-0.4522,-0.4511,-0.4491,-0.4504,-0.4453,-0.4511,-0.4511,-0.4511,-0.4511,-0.4511,-0.3697,-0.3734,-0.3796,-0.3856,-0.3902,-0.3951,-0.3992,-0.4038,-0.4093,-0.4167,-0.4194,-0.4262,-0.4325,-0.4424,-0.4465,-0.452,-0.4523,-0.4537,-0.4541,-0.4544,-0.4543,-0.448,-0.4533,-0.4533,-0.4533,-0.4533,-0.4533,0,-0.3735,-0.3776,-0.3831,-0.3904,-0.3952,-0.397,-0.403,-0.407,-0.4128,-0.4184,-0.4239,-0.4315,-0.438,-0.444,-0.4509,-0.4541,-0.4555,-0.4558,-0.4557,-0.4567,-0.4535,-0.4521,-0.4545,-0.4545,-0.4545,-0.4545,-0.4545,-0.4545,-0.376,-0.3823,-0.3853,-0.394,-0.3982,-0.4048,-0.4081,-0.4128,-0.4173,-0.4256,-0.4309,-0.4347,-0.4406,-0.4479,-0.454,-0.4556,-0.4581,-0.458,-0.46,-0.457,-0.4569,-0.4567,-0.4554,-0.4584,-0.4584,-0.4627,-0.4627,-0.4628]}]]